Weather History for Siren, WI

Change the Weather History Date:

Friday, March 9, 2012

  Actual Average Record
Temperature  
Mean Temperature 19 °F -  
Max Temperature 30 °F - - ()
Min Temperature 8 °F - - ()
Degree Days  
Heating Degree Days 46    
Moisture  
Dew Point 4 °F    
Average Humidity 53    
Maximum Humidity 85    
Minimum Humidity 27    
Precipitation  
Precipitation 0.00 in - - ()
Sea Level Pressure  
Sea Level Pressure 30.46 in    
Wind  
Wind Speed 7 mph (West)    
Max Wind Speed 13 mph    
Max Gust Speed 20 mph    
Visibility 10 miles    
Events      
T = Trace of Precipitation, MM = Missing Value Source: NWS Daily Summary

Daily Weather History Graph

Daily Weather History Graph

Search for Another Location

Airport:

Trip Planner

Search our weather history database for the weather conditions in past years. The results will help you decide how hot, cold, wet, or windy it might be!

Date:

Astronomy

Mar. 09, 2012 Rise Set
Actual Time 6:32 AM CST 6:07 PM CST
Civil Twilight 6:02 AM CST 6:37 PM CST
Nautical Twilight 5:28 AM CST 7:12 PM CST
Astronomical Twilight 4:53 AM CST 7:47 PM CST
Moon 8:18 PM CST (3/9) 6:43 AM CST (3/9)
Length of Visible Light 12h 34m
Length of Day
11h 35m
Full, 97% of the Moon is Illuminated
Mar 9
Full
Mar 14
Last Quarter
Mar 22
New
Mar 30
First Quarter
Apr 6
Full

Hourly Weather History & Observations

Time (CST) Temp. Windchill Dew Point Humidity Pressure Visibility Wind Dir Wind Speed Gust Speed Precip Events Conditions
12:15 AM 19.4 °F 7.2 °F 8.6 °F 63% 30.35 in 10.0 mi North 11.5 mph 19.6 mph N/A   Clear
12:35 AM 19.4 °F 6.6 °F 6.8 °F 58% 30.36 in 10.0 mi NNW 12.7 mph 19.6 mph N/A   Clear
12:55 AM 17.6 °F 6.4 °F 8.6 °F 68% 30.37 in 10.0 mi North 9.2 mph - N/A   Clear
1:15 AM 17.6 °F 6.4 °F 6.8 °F 63% 30.38 in 10.0 mi North 9.2 mph - N/A   Clear
1:35 AM 17.6 °F 8.2 °F 6.8 °F 63% 30.39 in 10.0 mi NNW 6.9 mph - N/A   Clear
1:55 AM 15.8 °F 5.1 °F 6.8 °F 68% 30.40 in 10.0 mi NNW 8.1 mph - N/A   Clear
2:15 AM 14.0 °F 3.9 °F 6.8 °F 73% 30.41 in 10.0 mi NW 6.9 mph - N/A   Clear
2:55 AM 14.0 °F 2.9 °F 6.8 °F 73% 30.42 in 10.0 mi NW 8.1 mph - N/A   Clear
3:15 AM 14.0 °F 2.0 °F 6.8 °F 73% 30.42 in 10.0 mi NW 9.2 mph - N/A   Clear
3:35 AM 12.2 °F -0.2 °F 5.0 °F 73% 30.43 in 10.0 mi NNW 9.2 mph - N/A   Clear
3:55 AM 12.2 °F 0.7 °F 5.0 °F 73% 30.44 in 10.0 mi NNW 8.1 mph - N/A   Clear
4:15 AM 12.2 °F 1.7 °F 5.0 °F 73% 30.45 in 10.0 mi NNW 6.9 mph - N/A   Clear
4:35 AM 12.2 °F 2.9 °F 5.0 °F 73% 30.46 in 10.0 mi NNW 5.8 mph - N/A   Clear
4:55 AM 10.4 °F -0.4 °F 5.0 °F 79% 30.47 in 10.0 mi NNW 6.9 mph - N/A   Clear
5:15 AM 10.4 °F -0.4 °F 5.0 °F 79% 30.49 in 10.0 mi NNW 6.9 mph - N/A   Clear
5:35 AM 10.4 °F -0.4 °F 5.0 °F 79% 30.49 in 10.0 mi NNW 6.9 mph - N/A   Clear
5:55 AM 10.4 °F -1.5 °F 5.0 °F 79% 30.50 in 10.0 mi NW 8.1 mph - N/A   Clear
6:15 AM 8.6 °F -1.3 °F 3.2 °F 79% 30.50 in 10.0 mi NNW 5.8 mph - N/A   Clear
6:35 AM 8.6 °F -1.3 °F 3.2 °F 79% 30.51 in 10.0 mi NNW 5.8 mph - N/A   Clear
6:55 AM 8.6 °F 0.1 °F 5.0 °F 85% 30.52 in 10.0 mi NNW 4.6 mph - N/A   Clear
7:15 AM 10.4 °F -0.4 °F 5.0 °F 79% 30.52 in 10.0 mi North 6.9 mph - N/A   Clear
7:35 AM 12.2 °F 4.3 °F 5.0 °F 73% 30.53 in 10.0 mi NNW 4.6 mph - N/A   Clear
7:55 AM 12.2 °F 0.7 °F 5.0 °F 73% 30.54 in 10.0 mi NNW 8.1 mph - N/A   Clear
8:15 AM 12.2 °F 2.9 °F 5.0 °F 73% 30.55 in 10.0 mi North 5.8 mph - N/A   Clear
8:35 AM 14.0 °F 3.9 °F 5.0 °F 67% 30.56 in 10.0 mi North 6.9 mph - N/A   Clear
8:55 AM 14.0 °F 6.5 °F 5.0 °F 67% 30.57 in 10.0 mi North 4.6 mph - N/A   Clear
9:15 AM 14.0 °F - 5.0 °F 67% 30.58 in 10.0 mi Calm Calm - N/A   Clear
9:35 AM 15.8 °F - 5.0 °F 62% 30.58 in 10.0 mi Calm Calm - N/A   Clear
9:55 AM 17.6 °F - 5.0 °F 58% 30.58 in 10.0 mi Calm Calm - N/A   Clear
10:15 AM 17.6 °F - 5.0 °F 58% 30.58 in 10.0 mi Calm Calm - N/A   Clear
10:35 AM 19.4 °F - 5.0 °F 54% 30.58 in 10.0 mi Calm Calm - N/A   Clear
10:55 AM 21.2 °F - 3.2 °F 46% 30.58 in 10.0 mi Calm Calm - N/A   Clear
11:15 AM 21.2 °F - 3.2 °F 46% 30.57 in 10.0 mi Calm Calm - N/A   Clear
11:35 AM 23.0 °F - 3.2 °F 43% 30.57 in 10.0 mi Calm Calm - N/A   Clear
11:55 AM 24.8 °F - 5.0 °F 43% 30.56 in 10.0 mi Calm Calm - N/A   Clear
12:15 PM 24.8 °F 20.5 °F 3.2 °F 40% 30.56 in 10.0 mi South 3.5 mph - N/A   Clear
12:35 PM 26.6 °F - 3.2 °F 37% 30.54 in 10.0 mi Calm Calm - N/A   Clear
12:55 PM 26.6 °F - 5.0 °F 40% 30.53 in 10.0 mi Calm Calm - N/A   Clear
1:15 PM 28.4 °F 22.2 °F 3.2 °F 34% 30.52 in 10.0 mi SSW 5.8 mph - N/A   Clear
1:35 PM 28.4 °F 24.6 °F 1.4 °F 31% 30.50 in 10.0 mi SSE 3.5 mph - N/A   Clear
1:55 PM 28.4 °F 22.2 °F 1.4 °F 31% 30.49 in 10.0 mi South 5.8 mph - N/A   Clear
2:15 PM 28.4 °F 21.2 °F -0.4 °F 29% 30.49 in 10.0 mi South 6.9 mph - N/A   Clear
2:35 PM 30.2 °F 24.3 °F 3.2 °F 32% 30.47 in 10.0 mi South 5.8 mph - N/A   Clear
2:55 PM 30.2 °F 22.6 °F 1.4 °F 29% 30.45 in 10.0 mi SW 8.1 mph - N/A   Clear
3:15 PM 30.2 °F 23.4 °F 3.2 °F 32% 30.44 in 10.0 mi SW 6.9 mph - N/A   Clear
3:35 PM 30.2 °F 24.3 °F 3.2 °F 32% 30.43 in 10.0 mi South 5.8 mph - N/A   Clear
3:55 PM 30.2 °F 25.4 °F 1.4 °F 29% 30.42 in 10.0 mi SSE 4.6 mph - N/A   Clear
4:15 PM 30.2 °F 21.9 °F 1.4 °F 29% 30.41 in 10.0 mi South 9.2 mph 16.1 mph N/A   Clear
4:35 PM 30.2 °F 22.6 °F -0.4 °F 27% 30.40 in 10.0 mi South 8.1 mph - N/A   Clear
4:55 PM 30.2 °F 21.3 °F -0.4 °F 27% 30.40 in 10.0 mi SSE 10.4 mph - N/A   Mostly Cloudy
5:15 PM 28.4 °F 18.5 °F 1.4 °F 31% 30.39 in 10.0 mi South 11.5 mph - N/A   Overcast
5:35 PM 28.4 °F 19.1 °F 3.2 °F 34% 30.37 in 10.0 mi South 10.4 mph - N/A   Overcast
5:55 PM 28.4 °F 19.1 °F 1.4 °F 31% 30.36 in 10.0 mi South 10.4 mph - N/A   Overcast
6:15 PM 28.4 °F 20.4 °F 3.2 °F 34% 30.35 in 10.0 mi SSE 8.1 mph - N/A   Overcast
6:35 PM 28.4 °F 20.4 °F 5.0 °F 37% 30.34 in 10.0 mi South 8.1 mph - N/A   Overcast
6:55 PM 28.4 °F 18.5 °F 3.2 °F 34% 30.34 in 10.0 mi South 11.5 mph - N/A   Mostly Cloudy
7:15 PM 28.4 °F 19.1 °F 3.2 °F 34% 30.34 in 10.0 mi South 10.4 mph - N/A   Mostly Cloudy
7:35 PM 28.4 °F 20.4 °F 5.0 °F 37% 30.34 in 10.0 mi South 8.1 mph - N/A   Overcast
7:55 PM 26.6 °F 19.1 °F 5.0 °F 40% 30.34 in 10.0 mi South 6.9 mph - N/A   Mostly Cloudy
8:15 PM 26.6 °F 19.1 °F 3.2 °F 37% 30.32 in 10.0 mi SSE 6.9 mph - N/A   Clear
8:35 PM 26.6 °F 20.0 °F 3.2 °F 37% 30.32 in 10.0 mi South 5.8 mph - N/A   Clear
8:55 PM 26.6 °F 19.1 °F 5.0 °F 40% 30.29 in 10.0 mi SSE 6.9 mph - N/A   Clear
9:15 PM 26.6 °F 20.0 °F 5.0 °F 40% 30.28 in 10.0 mi SSE 5.8 mph - N/A   Clear
9:35 PM 26.6 °F 19.1 °F 6.8 °F 43% 30.27 in 10.0 mi South 6.9 mph - N/A   Clear
9:55 PM 28.4 °F 19.7 °F 6.8 °F 40% 30.26 in 10.0 mi South 9.2 mph - N/A   Clear
10:15 PM 28.4 °F 18.5 °F 8.6 °F 43% 30.24 in 10.0 mi South 11.5 mph - N/A   Clear
10:35 PM 28.4 °F 19.1 °F 8.6 °F 43% 30.22 in 10.0 mi South 10.4 mph - N/A   Clear
10:55 PM 28.4 °F 19.7 °F 8.6 °F 43% 30.21 in 10.0 mi South 9.2 mph - N/A   Clear
11:15 PM 28.4 °F 20.4 °F 10.4 °F 47% 30.19 in 10.0 mi SSE 8.1 mph 16.1 mph N/A   Clear
11:35 PM 28.4 °F 19.7 °F 10.4 °F 47% 30.18 in 10.0 mi South 9.2 mph - N/A   Clear
11:55 PM 30.2 °F 20.2 °F 10.4 °F 44% 30.16 in 10.0 mi South 12.7 mph 18.4 mph N/A   Clear